TimeEDT,TemperatureF,Dew PointF,Humidity,Sea Level PressureIn,VisibilityMPH,Wind Direction,Wind SpeedMPH,Gust SpeedMPH,PrecipitationIn,Events,Conditions,WindDirDegrees,DateUTC
12:37 AM,71.6,71.6,100,29.81,6.0,Variable,3.5,-,0.09,,Overcast,0,2012-08-16 04:37:00
12:45 AM,71.6,71.6,100,29.80,9.0,Calm,Calm,-,0.09,,Overcast,0,2012-08-16 04:45:00
12:53 AM,71.6,71.6,100,29.80,9.0,Calm,Calm,-,0.09,,Mostly Cloudy,0,2012-08-16 04:53:00
12:56 AM,71.1,71.1,100,29.81,9.0,WNW,3.5,-,0.09,,Mostly Cloudy,290,2012-08-16 04:56:00
1:13 AM,71.6,71.6,100,29.81,8.0,SSW,3.5,-,N/A,,Mostly Cloudy,200,2012-08-16 05:13:00
1:22 AM,71.6,71.6,100,29.80,8.0,Calm,Calm,-,N/A,,Mostly Cloudy,0,2012-08-16 05:22:00
1:56 AM,70.0,70.0,100,29.81,9.0,North,3.5,-,N/A,,Mostly Cloudy,360,2012-08-16 05:56:00
2:24 AM,69.8,69.8,100,29.81,9.0,NNW,8.1,-,N/A,,Overcast,330,2012-08-16 06:24:00
2:56 AM,68.0,66.9,96,29.81,10.0,North,4.6,-,N/A,,Mostly Cloudy,350,2012-08-16 06:56:00
3:27 AM,68.0,66.2,94,29.82,9.0,Variable,3.5,-,N/A,,Overcast,0,2012-08-16 07:27:00
3:34 AM,68.0,66.2,94,29.83,4.0,Calm,Calm,-,0.05,,Overcast,0,2012-08-16 07:34:00
3:38 AM,68.0,66.2,94,29.83,2.5,Variable,3.5,-,0.09,,Overcast,0,2012-08-16 07:38:00
3:45 AM,66.2,66.2,100,29.82,3.0,North,6.9,-,0.12,,Overcast,10,2012-08-16 07:45:00
3:56 AM,68.0,66.9,96,29.82,3.0,North,6.9,-,0.18,,Overcast,350,2012-08-16 07:56:00
4:56 AM,68.0,66.9,96,29.82,10.0,NW,3.5,-,0.01,,Overcast,320,2012-08-16 08:56:00
5:56 AM,66.9,66.0,97,29.82,10.0,Calm,Calm,-,N/A,,Partly Cloudy,0,2012-08-16 09:56:00
6:56 AM,66.9,66.0,97,29.83,10.0,Calm,Calm,-,N/A,,Mostly Cloudy,0,2012-08-16 10:56:00
7:56 AM,69.1,66.9,93,29.84,10.0,North,5.8,-,N/A,,Mostly Cloudy,350,2012-08-16 11:56:00
8:56 AM,71.1,66.9,87,29.83,10.0,NNW,5.8,-,N/A,,Clear,340,2012-08-16 12:56:00
9:49 AM,71.6,66.2,83,29.82,10.0,NNW,9.2,-,N/A,,Partly Cloudy,330,2012-08-16 13:49:00
9:56 AM,72.0,66.9,84,29.82,10.0,NNW,6.9,-,N/A,,Partly Cloudy,340,2012-08-16 13:56:00
10:56 AM,73.9,66.0,76,29.84,10.0,Variable,6.9,-,N/A,,Clear,0,2012-08-16 14:56:00
11:56 AM,75.0,66.9,76,29.83,10.0,NNE,9.2,-,N/A,,Clear,30,2012-08-16 15:56:00
12:56 PM,77.0,66.0,69,29.83,10.0,North,8.1,-,N/A,,Clear,10,2012-08-16 16:56:00
1:56 PM,78.1,66.9,68,29.81,10.0,Calm,Calm,-,N/A,,Clear,0,2012-08-16 17:56:00
2:56 PM,77.0,66.9,71,29.80,10.0,SW,5.8,-,N/A,,Clear,220,2012-08-16 18:56:00
3:56 PM,75.9,68.0,76,29.81,10.0,South,8.1,-,N/A,,Partly Cloudy,190,2012-08-16 19:56:00
4:56 PM,75.9,66.9,74,29.81,10.0,South,8.1,-,N/A,,Scattered Clouds,190,2012-08-16 20:56:00
5:56 PM,75.9,69.1,79,29.80,10.0,SSW,8.1,-,N/A,,Clear,210,2012-08-16 21:56:00
6:56 PM,75.9,69.1,79,29.81,10.0,South,5.8,-,N/A,,Clear,190,2012-08-16 22:56:00
7:56 PM,73.9,70.0,87,29.81,10.0,Calm,Calm,-,N/A,,Clear,0,2012-08-16 23:56:00
8:56 PM,73.0,68.0,84,29.83,10.0,SW,4.6,-,N/A,,Clear,230,2012-08-17 00:56:00
9:56 PM,71.1,68.0,90,29.83,10.0,WSW,4.6,-,N/A,,Partly Cloudy,250,2012-08-17 01:56:00
10:56 PM,72.0,68.0,87,29.83,10.0,West,4.6,-,N/A,,Clear,270,2012-08-17 02:56:00
11:56 PM,71.6,69.8,94,29.82,10.0,West,6.9,-,N/A,,Clear,260,2012-08-17 03:56:00